SKU1264 SCBA-SCTE

Flight info

Callsign SKU1264
Flight time 0h 50m
Altitude 32000
Route REKOD6C REKOD UT127 GENEK GENEK5B
Aircraft A21N/M-SDFGIRWYZ/EB1

Departure

Time 2026-05-05 19:17
Airport Balmaceda Airport (SCBA)

Arrival

Time 2026-05-05 20:07
Airport El Tepual International Airport (SCTE)
Time Latitude Longitude Altitude Speed Heading
2026-05-05 18:54 -45.91301 -71.69222 1732 ft 0 kts 302°
2026-05-05 19:06 -45.91303 -71.69217 1737 ft 3 kts 302°
2026-05-05 19:06 -45.91316 -71.69188 1737 ft 4 kts 296°
2026-05-05 19:06 -45.91319 -71.69159 1737 ft 4 kts 236°
2026-05-05 19:07 -45.91299 -71.69135 1737 ft 4 kts 208°
2026-05-05 19:07 -45.91280 -71.69119 1737 ft 1 kts 213°
2026-05-05 19:07 -45.91279 -71.69119 1733 ft 0 kts 213°
2026-05-05 19:10 -45.91329 -71.69166 1737 ft 8 kts 213°
2026-05-05 19:11 -45.91332 -71.69169 1737 ft 0 kts 212°
2026-05-05 19:11 -45.91332 -71.69170 1729 ft 1 kts 212°
2026-05-05 19:11 -45.91358 -71.69193 1733 ft 8 kts 211°
2026-05-05 19:12 -45.91415 -71.69199 1735 ft 10 kts 140°
2026-05-05 19:12 -45.91464 -71.69116 1730 ft 12 kts 129°
2026-05-05 19:12 -45.91520 -71.69015 1736 ft 14 kts 129°
2026-05-05 19:12 -45.91584 -71.68901 1736 ft 16 kts 128°
2026-05-05 19:13 -45.91618 -71.68746 1736 ft 17 kts 99°
2026-05-05 19:13 -45.91639 -71.68568 1732 ft 19 kts 100°
2026-05-05 19:13 -45.91663 -71.68374 1734 ft 21 kts 100°
2026-05-05 19:13 -45.91688 -71.68165 1733 ft 22 kts 100°
2026-05-05 19:14 -45.91717 -71.67943 1732 ft 23 kts 100°
2026-05-05 19:14 -45.91745 -71.67707 1737 ft 25 kts 100°
2026-05-05 19:14 -45.91787 -71.67477 1736 ft 17 kts 106°
2026-05-05 19:14 -45.91789 -71.67404 1736 ft 8 kts 24°
2026-05-05 19:15 -45.91774 -71.67477 1734 ft 10 kts 279°
2026-05-05 19:15 -45.91771 -71.67499 1735 ft 0 kts 283°
2026-05-05 19:16 -45.91754 -71.67611 1737 ft 40 kts 281°
2026-05-05 19:16 -45.91665 -71.68346 1735 ft 107 kts 280°
2026-05-05 19:16 -45.91507 -71.69628 1740 ft 147 kts 281°
2026-05-05 19:16 -45.91346 -71.71047 2184 ft 147 kts 279°
2026-05-05 19:17 -45.91191 -71.72559 2673 ft 157 kts 281°
2026-05-05 19:17 -45.90991 -71.74134 3401 ft 164 kts 283°
2026-05-05 19:17 -45.90767 -71.75835 3914 ft 185 kts 281°
2026-05-05 19:17 -45.90529 -71.77756 4432 ft 205 kts 279°
2026-05-05 19:18 -45.90264 -71.79872 4970 ft 227 kts 281°
2026-05-05 19:18 -45.89720 -71.82134 5377 ft 253 kts 300°
2026-05-05 19:18 -45.88496 -71.84033 6053 ft 266 kts 322°
2026-05-05 19:18 -45.86922 -71.85468 6912 ft 270 kts 328°
2026-05-05 19:19 -45.85288 -71.86855 7779 ft 274 kts 328°
2026-05-05 19:19 -45.83632 -71.88283 8674 ft 278 kts 328°
2026-05-05 19:19 -45.81991 -71.89724 9763 ft 283 kts 330°
2026-05-05 19:19 -45.80286 -71.91227 10478 ft 295 kts 329°
2026-05-05 19:20 -45.78471 -71.92838 10588 ft 318 kts 328°
2026-05-05 19:20 -45.76518 -71.94576 10958 ft 339 kts 328°
2026-05-05 19:20 -45.74488 -71.96385 11617 ft 347 kts 328°
2026-05-05 19:20 -45.72426 -71.98224 12437 ft 350 kts 329°
2026-05-05 19:21 -45.70351 -72.00073 13239 ft 353 kts 328°
2026-05-05 19:21 -45.68249 -72.01946 14010 ft 357 kts 328°
2026-05-05 19:21 -45.66853 -72.03190 14503 ft 359 kts 328°
2026-05-05 19:21 -45.64699 -72.05040 15227 ft 363 kts 330°
2026-05-05 19:22 -45.62470 -72.06765 15921 ft 367 kts 330°
2026-05-05 19:22 -45.60202 -72.08494 16589 ft 371 kts 329°
2026-05-05 19:22 -45.57920 -72.10236 17254 ft 374 kts 329°
2026-05-05 19:22 -45.55612 -72.11999 17889 ft 377 kts 329°
2026-05-05 19:23 -45.53290 -72.13769 18506 ft 380 kts 328°
2026-05-05 19:23 -45.50956 -72.15545 19072 ft 382 kts 328°
2026-05-05 19:23 -45.48610 -72.17330 19652 ft 384 kts 328°
2026-05-05 19:23 -45.46241 -72.19134 20205 ft 387 kts 328°
2026-05-05 19:24 -45.43855 -72.20948 20769 ft 390 kts 328°
2026-05-05 19:24 -45.41455 -72.22767 21352 ft 393 kts 328°
2026-05-05 19:24 -45.39034 -72.24602 21907 ft 395 kts 328°
2026-05-05 19:24 -45.36595 -72.26435 22471 ft 398 kts 330°
2026-05-05 19:25 -45.33986 -72.27852 23000 ft 406 kts 341°
2026-05-05 19:25 -45.31207 -72.28699 23538 ft 410 kts 345°
2026-05-05 19:25 -45.28421 -72.29428 24055 ft 413 kts 345°
2026-05-05 19:25 -45.25588 -72.30171 24561 ft 415 kts 345°
2026-05-05 19:26 -45.22742 -72.30929 25092 ft 416 kts 344°
2026-05-05 19:26 -45.19893 -72.31696 25595 ft 417 kts 344°
2026-05-05 19:26 -45.17038 -72.32469 26090 ft 419 kts 344°
2026-05-05 19:26 -45.14175 -72.33249 26545 ft 420 kts 344°
2026-05-05 19:27 -45.11292 -72.34032 26978 ft 422 kts 344°
2026-05-05 19:27 -45.08405 -72.34818 27394 ft 424 kts 344°
2026-05-05 19:27 -45.05499 -72.35606 27836 ft 426 kts 344°
2026-05-05 19:27 -45.02588 -72.36393 28305 ft 425 kts 343°
2026-05-05 19:28 -44.99693 -72.37173 28863 ft 421 kts 343°
2026-05-05 19:28 -44.96821 -72.37949 29394 ft 418 kts 343°
2026-05-05 19:28 -44.93966 -72.38718 29934 ft 415 kts 343°
2026-05-05 19:28 -44.91175 -72.39469 30458 ft 412 kts 343°
2026-05-05 19:29 -44.88367 -72.40224 30916 ft 409 kts 343°
2026-05-05 19:29 -44.85578 -72.40973 31329 ft 407 kts 343°
2026-05-05 19:29 -44.82794 -72.41722 31726 ft 407 kts 343°
2026-05-05 19:29 -44.80020 -72.42469 31850 ft 404 kts 343°
2026-05-05 19:30 -44.74507 -72.43948 31853 ft 403 kts 342°
2026-05-05 19:30 -44.68985 -72.45428 31848 ft 402 kts 342°
2026-05-05 19:31 -44.63478 -72.46899 31844 ft 401 kts 342°
2026-05-05 19:31 -44.58035 -72.48354 31860 ft 401 kts 342°
2026-05-05 19:32 -44.52547 -72.49813 31850 ft 401 kts 342°
2026-05-05 19:32 -44.47068 -72.51268 31846 ft 400 kts 342°
2026-05-05 19:33 -44.41588 -72.52721 31860 ft 399 kts 342°
2026-05-05 19:33 -44.36174 -72.54155 31854 ft 398 kts 342°
2026-05-05 19:34 -44.30738 -72.55592 31850 ft 397 kts 342°
2026-05-05 19:35 -44.22582 -72.57742 31860 ft 398 kts 342°
2026-05-05 19:35 -44.17136 -72.59174 31856 ft 398 kts 342°
2026-05-05 19:36 -44.11682 -72.60606 31862 ft 398 kts 342°
2026-05-05 19:36 -44.06243 -72.62028 31854 ft 398 kts 342°
2026-05-05 19:37 -44.00807 -72.63449 31857 ft 398 kts 342°
2026-05-05 19:37 -43.95417 -72.64851 31864 ft 392 kts 342°
2026-05-05 19:38 -43.90065 -72.66248 31859 ft 391 kts 342°
2026-05-05 19:38 -43.84694 -72.67645 31860 ft 392 kts 342°
2026-05-05 19:39 -43.79333 -72.69036 31858 ft 391 kts 342°
2026-05-05 19:39 -43.73978 -72.70422 31870 ft 391 kts 342°
2026-05-05 19:40 -43.68639 -72.71806 31864 ft 391 kts 342°
2026-05-05 19:40 -43.63291 -72.73186 31865 ft 390 kts 342°
2026-05-05 19:41 -43.57953 -72.74558 31860 ft 390 kts 342°
2026-05-05 19:41 -43.52644 -72.75922 31862 ft 389 kts 342°
2026-05-05 19:42 -43.47328 -72.77289 31865 ft 389 kts 342°
2026-05-05 19:42 -43.41992 -72.78657 31874 ft 389 kts 342°
2026-05-05 19:43 -43.36659 -72.79790 31856 ft 386 kts 346°
2026-05-05 19:43 -43.31371 -72.80720 31791 ft 377 kts 345°
2026-05-05 19:43 -43.28787 -72.81183 31473 ft 384 kts 345°
2026-05-05 19:44 -43.26137 -72.81660 30982 ft 383 kts 345°
2026-05-05 19:44 -43.23496 -72.82130 30418 ft 382 kts 345°
2026-05-05 19:44 -43.20869 -72.82596 29865 ft 379 kts 345°
2026-05-05 19:44 -43.18257 -72.83058 29279 ft 378 kts 346°
2026-05-05 19:45 -43.15655 -72.83518 28714 ft 376 kts 346°
2026-05-05 19:45 -43.13065 -72.83977 28137 ft 374 kts 345°
2026-05-05 19:45 -43.10489 -72.84435 27594 ft 373 kts 346°
2026-05-05 19:45 -43.07921 -72.84892 27026 ft 371 kts 346°
2026-05-05 19:46 -43.05360 -72.85346 26448 ft 371 kts 346°
2026-05-05 19:46 -43.02803 -72.85794 25884 ft 370 kts 346°
2026-05-05 19:46 -43.00254 -72.86237 25342 ft 368 kts 346°
2026-05-05 19:46 -42.97718 -72.86679 24800 ft 366 kts 346°
2026-05-05 19:47 -42.95187 -72.87124 24243 ft 365 kts 346°
2026-05-05 19:47 -42.92674 -72.87564 23691 ft 364 kts 347°
2026-05-05 19:47 -42.90195 -72.87998 23154 ft 362 kts 347°
2026-05-05 19:47 -42.87699 -72.88434 22626 ft 361 kts 347°
2026-05-05 19:48 -42.85185 -72.88874 22098 ft 359 kts 347°
2026-05-05 19:48 -42.82735 -72.89303 21559 ft 359 kts 347°
2026-05-05 19:48 -42.80262 -72.89735 21015 ft 358 kts 347°
2026-05-05 19:48 -42.77799 -72.90166 20496 ft 356 kts 347°
2026-05-05 19:49 -42.75342 -72.90593 19989 ft 354 kts 347°
2026-05-05 19:49 -42.73726 -72.90874 19661 ft 352 kts 347°
2026-05-05 19:49 -42.70481 -72.91439 19040 ft 349 kts 347°
2026-05-05 19:49 -42.68085 -72.91856 18598 ft 347 kts 347°
2026-05-05 19:50 -42.65695 -72.92271 18164 ft 346 kts 347°
2026-05-05 19:50 -42.63303 -72.92686 17734 ft 345 kts 347°
2026-05-05 19:50 -42.60924 -72.93099 17309 ft 344 kts 348°
2026-05-05 19:50 -42.58554 -72.93510 16880 ft 344 kts 348°
2026-05-05 19:51 -42.56211 -72.93916 16445 ft 344 kts 348°
2026-05-05 19:51 -42.53831 -72.94329 16014 ft 344 kts 348°
2026-05-05 19:51 -42.51460 -72.94739 15598 ft 343 kts 348°
2026-05-05 19:51 -42.49099 -72.95147 15199 ft 342 kts 348°
2026-05-05 19:52 -42.46749 -72.95552 14807 ft 340 kts 349°
2026-05-05 19:52 -42.44398 -72.95957 14394 ft 340 kts 349°
2026-05-05 19:52 -42.42054 -72.96362 13969 ft 339 kts 349°
2026-05-05 19:52 -42.39710 -72.96767 13559 ft 338 kts 349°
2026-05-05 19:53 -42.37379 -72.97170 13171 ft 337 kts 349°
2026-05-05 19:53 -42.35060 -72.97568 12786 ft 337 kts 350°
2026-05-05 19:53 -42.32733 -72.97965 12400 ft 335 kts 350°
2026-05-05 19:53 -42.30425 -72.98360 12011 ft 334 kts 350°
2026-05-05 19:54 -42.28125 -72.98756 11617 ft 333 kts 350°
2026-05-05 19:54 -42.25824 -72.99152 11237 ft 332 kts 351°
2026-05-05 19:54 -42.23533 -72.99546 10867 ft 331 kts 351°
2026-05-05 19:54 -42.21273 -72.99936 10566 ft 323 kts 351°
2026-05-05 19:55 -42.19080 -73.00311 10380 ft 312 kts 351°
2026-05-05 19:55 -42.16962 -73.00673 10221 ft 300 kts 351°
2026-05-05 19:55 -42.14931 -73.01019 10064 ft 289 kts 352°
2026-05-05 19:55 -42.12985 -73.01350 9842 ft 284 kts 352°
2026-05-05 19:56 -42.11028 -73.01683 9565 ft 283 kts 352°
2026-05-05 19:56 -42.09080 -73.02015 9270 ft 282 kts 352°
2026-05-05 19:56 -42.07109 -73.02351 8968 ft 281 kts 353°
2026-05-05 19:56 -42.05196 -73.02677 8661 ft 281 kts 353°
2026-05-05 19:57 -42.03258 -73.03007 8362 ft 280 kts 353°
2026-05-05 19:57 -42.01947 -73.03231 8169 ft 280 kts 353°
2026-05-05 19:57 -41.99398 -73.03665 7799 ft 278 kts 353°
2026-05-05 19:57 -41.97482 -73.03991 7506 ft 277 kts 353°
2026-05-05 19:58 -41.95564 -73.04318 7202 ft 277 kts 353°
2026-05-05 19:58 -41.93651 -73.04643 6892 ft 277 kts 353°
2026-05-05 19:58 -41.91741 -73.04969 6582 ft 276 kts 353°
2026-05-05 19:58 -41.89842 -73.05291 6275 ft 272 kts 353°
2026-05-05 19:59 -41.87966 -73.05608 5974 ft 269 kts 353°
2026-05-05 19:59 -41.86116 -73.05920 5688 ft 268 kts 353°
2026-05-05 19:59 -41.84269 -73.06232 5405 ft 267 kts 353°
2026-05-05 19:59 -41.82430 -73.06544 5125 ft 265 kts 353°
2026-05-05 20:00 -41.80615 -73.06851 4991 ft 257 kts 354°
2026-05-05 20:00 -41.78914 -73.07138 4973 ft 241 kts 354°
2026-05-05 20:00 -41.77309 -73.07408 4953 ft 224 kts 354°
2026-05-05 20:00 -41.75807 -73.07661 4843 ft 211 kts 354°
2026-05-05 20:01 -41.74367 -73.07905 4565 ft 206 kts 354°
2026-05-05 20:01 -41.72949 -73.08146 4206 ft 205 kts 354°
2026-05-05 20:01 -41.71532 -73.08384 3834 ft 205 kts 354°
2026-05-05 20:01 -41.70129 -73.08621 3527 ft 198 kts 354°
2026-05-05 20:02 -41.68811 -73.08843 3428 ft 182 kts 354°
2026-05-05 20:02 -41.67575 -73.09085 3151 ft 180 kts 349°
2026-05-05 20:02 -41.66351 -73.09501 2995 ft 182 kts 349°
2026-05-05 20:02 -41.65105 -73.09804 2977 ft 182 kts 354°
2026-05-05 20:03 -41.63861 -73.09955 2984 ft 181 kts 359°
2026-05-05 20:03 -41.62605 -73.10005 2992 ft 181 kts
2026-05-05 20:03 -41.61347 -73.10007 2996 ft 181 kts
2026-05-05 20:03 -41.60091 -73.09971 2998 ft 180 kts
2026-05-05 20:04 -41.58836 -73.09929 2939 ft 180 kts
2026-05-05 20:04 -41.57585 -73.09885 2757 ft 179 kts
2026-05-05 20:04 -41.56351 -73.09841 2521 ft 175 kts
2026-05-05 20:04 -41.55142 -73.09797 2277 ft 170 kts
2026-05-05 20:05 -41.53993 -73.09757 2048 ft 162 kts
2026-05-05 20:05 -41.52864 -73.09716 1836 ft 160 kts
2026-05-05 20:05 -41.51764 -73.09676 1632 ft 160 kts
2026-05-05 20:05 -41.50662 -73.09638 1455 ft 148 kts
2026-05-05 20:06 -41.49656 -73.09601 1253 ft 144 kts
2026-05-05 20:06 -41.48659 -73.09566 1053 ft 143 kts
2026-05-05 20:06 -41.47668 -73.09530 851 ft 142 kts
2026-05-05 20:06 -41.46684 -73.09496 662 ft 141 kts
2026-05-05 20:07 -41.45703 -73.09459 475 ft 140 kts
2026-05-05 20:07 -41.44751 -73.09427 309 ft 133 kts
2026-05-05 20:07 -41.44028 -73.09401 296 ft 62 kts
2026-05-05 20:07 -41.43775 -73.09394 300 ft 30 kts
2026-05-05 20:08 -41.43604 -73.09386 305 ft 14 kts
2026-05-05 20:08 -41.43512 -73.09383 307 ft 11 kts 355°
2026-05-05 20:08 -41.43479 -73.09413 307 ft 9 kts 294°
2026-05-05 20:08 -41.43474 -73.09474 307 ft 0 kts 273°
2026-05-05 20:09 -41.43473 -73.09482 308 ft 2 kts 273°
2026-05-05 20:09 -41.43472 -73.09515 309 ft 5 kts 272°
2026-05-05 20:10 -41.43468 -73.09568 307 ft 7 kts 285°
2026-05-05 20:10 -41.43423 -73.09600 310 ft 9 kts
2026-05-05 20:10 -41.43352 -73.09597 307 ft 11 kts
2026-05-05 20:10 -41.43283 -73.09594 307 ft 6 kts
2026-05-05 20:11 -41.43260 -73.09631 307 ft 7 kts 272°
2026-05-05 20:11 -41.43258 -73.09699 307 ft 7 kts 272°
2026-05-05 20:11 -41.43257 -73.09736 309 ft 4 kts 271°
2026-05-05 20:11 -41.43257 -73.09741 307 ft 0 kts 271°